WetterOnline ( http://www.wetteronline.de )

Wetter aktuell Andernach

Aktuelles Wetter: Andernach (75m)

6-stündlich | Neueste Meldungen
Ortszeit Temperatur Wetter
So, 21.10. 14:00 11.8° C wolkenlos
So, 21.10. 8:00 4.6° C Nebel
So, 21.10. 2:00 3.9° C wolkenlos
Sa, 20.10. 20:00 10.3° C wolkig
Sa, 20.10. 14:00 13.5° C wolkig
Sa, 20.10. 8:00 9.1° C bedeckt
Sa, 20.10. 2:00 10.4° C bewölkt
Fr, 19.10. 20:00 14.9° C bedeckt
Ortszeit Temperatur Wetter
So, 21.10. 19:30 10.5° C wolkig
So, 21.10. 19:20 10.5° C wolkig
So, 21.10. 19:10 10.7° C wolkig
So, 21.10. 19:00 11.8° C wolkig
So, 21.10. 18:50 11.8° C wolkig
So, 21.10. 18:40 12.2° C wolkig
So, 21.10. 18:30 13.7° C wolkig
So, 21.10. 18:00 15.2° C leicht bewölkt
So, 21.10. 17:30 15.9° C fast wolkenlos
So, 21.10. 17:00 16.2° C wolkenlos
So, 21.10. 16:30 16.7° C fast wolkenlos
Ortszeit Relative Feuchte Sichtweite
So, 21.10. 14:00 67% 17 km
So, 21.10. 8:00 98% 0.3 km
So, 21.10. 2:00 95% 7 km
Sa, 20.10. 20:00 75% 24 km
Sa, 20.10. 14:00 66% 14 km
Sa, 20.10. 8:00 93% 4.1 km
Sa, 20.10. 2:00 91% 7 km
Fr, 19.10. 20:00 73% 18 km
Ortszeit Relative Feuchte Sichtweite
So, 21.10. 19:30 75% 30 km
So, 21.10. 19:20 75% -
So, 21.10. 19:10 75% -
So, 21.10. 19:00 68% 45 km
So, 21.10. 18:50 68% -
So, 21.10. 18:40 67% -
So, 21.10. 18:30 58% 60 km
So, 21.10. 18:00 52% 50 km
So, 21.10. 17:30 49% 55 km
So, 21.10. 17:00 48% 65 km
So, 21.10. 16:30 47% 35 km
Ortszeit Niederschlagsmenge Niederschlagsart
So, 21.10. 14:00 0.0 l/m2 in 6 Std. -
So, 21.10. 8:00 0.0 l/m2 in 12 Std. -
So, 21.10. 2:00 0.0 l/m2 in 6 Std. -
Sa, 20.10. 20:00 0.0 l/m2 in 12 Std. -
Sa, 20.10. 14:00 0.0 l/m2 in 6 Std. -
Sa, 20.10. 8:00 0.0 l/m2 in 12 Std. -
Sa, 20.10. 2:00 0.0 l/m2 in 6 Std. -
Fr, 19.10. 20:00 0.0 l/m2 in 12 Std. -
Ortszeit Niederschlagsmenge Niederschlagsart
So, 21.10. 19:30 0.0 l/m2 in 1 Std. -
So, 21.10. 19:20 keine Meldung -
So, 21.10. 19:10 keine Meldung -
So, 21.10. 19:00 0.0 l/m2 in 1 Std. -
So, 21.10. 18:50 keine Meldung -
So, 21.10. 18:40 keine Meldung -
So, 21.10. 18:30 0.0 l/m2 in 1 Std. -
So, 21.10. 18:00 0.0 l/m2 in 1 Std. -
So, 21.10. 17:30 0.0 l/m2 in 1 Std. -
So, 21.10. 17:00 0.0 l/m2 in 1 Std. -
So, 21.10. 16:30 0.0 l/m2 in 1 Std. -
Ortszeit Stärke Spitze Richtung
km/h Bft. km/h Grad Sektor
So, 21.10. 14:00 4 1 11 70° O
So, 21.10. 8:00 4 1 7 200° S
So, 21.10. 2:00 7 2 11 200° S
Sa, 20.10. 20:00 4 1 22 180° S
Sa, 20.10. 14:00 11 2 22 320° NW
Sa, 20.10. 8:00 7 2 29 330° NW
Sa, 20.10. 2:00 9 2 19 360° N
Fr, 19.10. 20:00 7 2 18 330° NW
Ortszeit Stärke Spitze Richtung
km/h Bft. km/h Grad Sektor
So, 21.10. 19:30 4 1 4 320° NW
So, 21.10. 19:20 4 1 - 320° NW
So, 21.10. 19:10 4 1 - 320° NW
So, 21.10. 19:00 4 1 7 200° S
So, 21.10. 18:50 4 1 - 200° S
So, 21.10. 18:40 4 1 - 120° SO
So, 21.10. 18:30 7 2 7 110° O
So, 21.10. 18:00 7 2 11 90° O
So, 21.10. 17:30 4 1 11 90° O
So, 21.10. 17:00 6 1 13 120° SO
So, 21.10. 16:30 4 1 14 130° SO
Ortszeit Untergrenze Bedeckung Gattung
total tief tief mittel hoch
So, 21.10. 14:00 - 0/8 0/8 - - -
So, 21.10. 8:00 <30 m 8/8 8/8 - - -
So, 21.10. 2:00 - 0/8 0/8 - - -
Sa, 20.10. 20:00 7800 m 8/8 0/8 - - -
Sa, 20.10. 14:00 6000 m 7/8 2/8 - - -
Sa, 20.10. 8:00 120 m 8/8 8/8 - - -
Sa, 20.10. 2:00 1020 m 7/8 8/8 - - -
Fr, 19.10. 20:00 1110 m 8/8 8/8 - - -
Ortszeit Bedeckungsgrad in Achtel und Wolkenuntergrenze
So, 21.10. 19:30 8(10500m)
So, 21.10. 19:20 8(10500m)
So, 21.10. 19:10 8(10500m)
So, 21.10. 19:00 8(10500m)
So, 21.10. 18:50 8(10500m)
So, 21.10. 18:40 7(10500m)
So, 21.10. 18:30 7(10500m)
So, 21.10. 18:00 3(10500m) 4(10500m)
So, 21.10. 17:30 2(10500m) 2(10500m)
So, 21.10. 17:00 keine Wolken
So, 21.10. 16:30 1(10500m)
Ortszeit Luftdruck NN (hPa) Tendenz (hPa in 3 Std.)
So, 21.10. 14:00 1029 - 2,2
So, 21.10. 8:00 1031 - 0,4
So, 21.10. 2:00 1031 - 0,4
Sa, 20.10. 20:00 1031 + 1,2
Sa, 20.10. 14:00 1031 - 0,3
Sa, 20.10. 8:00 1029 + 1,7
Sa, 20.10. 2:00 1027 + 0,9
Fr, 19.10. 20:00 1024 + 1,3
Ortszeit Luftdruck NN (hPa) Tendenz (hPa in 3 Std.)
So, 21.10. 19:30 1027 - 0,6
So, 21.10. 19:20 1027 keine Meldung
So, 21.10. 19:10 1027 keine Meldung
So, 21.10. 19:00 1027 - 1,0
So, 21.10. 18:50 1027 keine Meldung
So, 21.10. 18:40 1027 keine Meldung
So, 21.10. 18:30 1027 - 1,3
So, 21.10. 18:00 1027 - 1,7
So, 21.10. 17:30 1027 - 1,8
So, 21.10. 17:00 1027 - 1,9
So, 21.10. 16:30 1027 - 2,2
Ortszeit Schneehöhe (cm)
So, 21.10. 14:00 0
So, 21.10. 8:00 0
So, 21.10. 2:00 0
Sa, 20.10. 20:00 0
Sa, 20.10. 14:00 0
Sa, 20.10. 8:00 0
Sa, 20.10. 2:00 0
Fr, 19.10. 20:00 0
Ortszeit Schneehöhe (cm)
So, 21.10. 19:30 0
So, 21.10. 19:20 0
So, 21.10. 19:10 0
So, 21.10. 19:00 0
So, 21.10. 18:50 0
So, 21.10. 18:40 0
So, 21.10. 18:30 0
So, 21.10. 18:00 0
So, 21.10. 17:30 0
So, 21.10. 17:00 0
So, 21.10. 16:30 0
Link zu dieser Seite / Seite empfehlen

Das Wetter in ...